Theta_e
338 339 344 350 349 352 349 351 348 356 353 349 342 337 336 340 342 342 342 343 349 352 363 364 363 366 355 361 364 366 362 359 358 353 350 350 354 359 353 353 355 359 357
334 338 343 343 346 351 354 353 351 358 354 357 352 345 343 344 340 343 348 351 358 366 366 366 363 365 363 366 366 362 360 357 354 352 350 341 347 353 354 351 358 359 360
334 338 340 344 348 353 354 357 358 359 360 358 359 356 356 355 355 354 355 357 363 366 367 368 367 369 370 360 364 361 362 354 356 357 350 342 337 341 346 346 354 355 357
336 339 339 344 346 352 355 360 361 359 361 364 354 355 351 350 351 356 354 359 366 366 365 367 368 368 370 364 362 361 365 363 353 354 354 356 350 339 335 344 346 347 348
335 337 339 343 348 353 353 358 365 363 364 361 360 357 354 352 354 353 359 364 372 370 366 366 368 367 369 367 363 360 368 364 360 355 351 351 352 348 343 334 337 342 352
337 339 338 346 349 352 354 357 363 365 367 365 364 360 357 356 356 357 358 356 362 361 357 367 371 374 370 369 368 369 369 367 365 364 358 352 349 346 339 335 335 336 342
336 339 341 344 348 351 355 357 362 363 367 366 364 366 364 364 359 361 361 359 358 361 363 364 370 371 370 369 368 369 366 365 363 362 358 357 354 353 343 341 337 339 341
337 339 342 345 349 350 353 357 361 362 364 365 366 369 370 364 363 367 364 365 358 356 363 369 373 363 370 370 368 364 362 364 361 360 357 355 354 354 353 346 338 334 338
334 335 340 343 348 350 352 357 362 364 364 361 367 370 372 369 363 361 371 366 359 364 362 365 368 367 368 368 364 362 360 362 362 358 357 356 355 354 353 350 344 338 335
332 335 339 340 344 347 352 355 362 362 363 362 364 365 366 370 370 373 373 367 368 368 366 364 366 366 367 366 363 362 360 358 359 358 357 355 354 352 351 349 351 348 342
332 336 339 343 345 350 352 356 358 361 360 360 362 363 364 366 370 361 363 360 362 361 360 361 361 360 359 360 360 359 357 356 355 355 353 352 353 352 352 351 349 346 345
334 335 341 344 346 349 351 353 357 355 359 364 372 367 364 360 359 358 357 356 354 355 356 356 354 353 353 355 353 351 349 348 347 348 348 343 347 346 349 349 347 346 346
336 337 339 346 345 349 353 353 355 358 361 369 364 363 359 354 350 349 349 350 349 347 347 348 347 344 345 347 347 349 346 344 342 338 338 338 337 336 338 341 344 345 346
340 337 340 344 354 360 364 365 361 364 367 361 358 356 352 349 344 342 343 344 344 342 342 343 343 341 341 342 341 340 340 339 341 337 336 335 332 331 332 332 334 336 340
335 341 344 357 361 364 367 368 366 366 360 358 352 350 349 345 341 339 338 340 344 345 344 340 338 339 336 332 339 337 335 334 336 336 336 336 334 332 331 329 329 331 331
339 348 356 361 362 365 365 366 364 360 358 352 346 347 342 338 338 339 338 340 343 342 341 338 337 335 331 329 331 337 335 337 333 331 332 334 333 336 331 332 333 331 328
344 353 357 360 362 364 365 359 357 355 351 348 346 342 341 344 344 343 342 339 338 339 337 335 335 332 329 326 327 335 332 331 331 332 330 327 329 330 333 335 334 332 330
352 357 358 361 362 362 360 356 352 349 348 345 345 345 346 344 343 343 342 340 341 338 336 335 334 333 326 323 325 329 335 334 329 327 329 329 327 326 327 333 332 333 331
356 357 360 360 363 360 354 350 347 347 347 345 346 346 345 344 343 342 341 341 340 338 336 335 335 332 329 320 322 329 334 333 329 323 322 323 324 322 322 329 328 331 332
356 357 359 360 355 352 349 347 345 346 345 346 347 347 346 344 342 343 342 344 340 334 331 332 333 327 325 318 319 326 332 332 327 328 325 322 320 318 318 327 323 320 322
357 360 359 354 351 349 347 345 346 344 347 348 348 346 345 343 343 343 343 339 336 335 331 329 329 327 324 322 317 317 324 320 319 318 320 323 319 317 316 318 322 319 318
357 358 354 349 349 349 348 344 344 346 347 347 345 344 344 340 341 341 340 339 338 335 332 327 322 325 330 318 317 317 317 322 323 322 324 323 316 316 316 318 316 316 320
357 355 348 347 347 349 348 344 343 346 346 344 343 343 344 340 340 338 337 335 337 330 330 330 324 321 324 325 317 316 317 318 325 322 319 321 317 318 316 318 320 322 321
355 348 345 344 345 348 348 345 345 345 344 342 342 342 340 337 338 335 334 337 335 331 331 329 324 325 324 324 327 325 323 321 323 317 318 322 320 321 319 323 323 323 320
350 346 344 344 345 348 345 344 345 345 342 342 340 340 338 336 337 323 322 322 314 314 329 323 325 319 316 318 308 308 315 314 311 307 319 325 323 322 321 320 319 319 318
348 345 345 346 346 346 343 343 344 344 341 339 339 339 335 332 329 323 317 306 306 303 302 303 313 315 309 305 304 304 301 301 302 314 319 321 321 318 316 316 315 316 318
Wind_Speed
11 8 19 23 17 17 13 11 4 11 8 9 5 4 5 7 5 5 9 11 11 14 10 4 3 0 1 4 2 2 5 5 5 6 5 5 5 2 4 2 8 6 7
12 17 14 13 15 15 16 15 14 9 6 4 6 4 4 4 8 8 10 13 14 7 6 5 5 4 3 4 4 5 4 5 3 3 3 4 3 3 4 5 8 6 3
18 16 16 13 15 15 13 16 12 12 9 9 5 6 7 4 4 5 8 10 11 9 6 6 5 3 3 5 4 6 4 4 6 9 2 3 2 4 5 6 3 3 3
19 18 17 18 16 14 11 12 14 12 9 9 9 7 6 4 4 6 7 6 9 9 8 8 6 6 3 5 5 6 1 2 5 7 3 5 2 3 4 5 4 5 4
16 20 18 14 17 14 13 12 13 13 11 11 7 9 7 6 5 6 8 6 2 5 6 10 6 5 5 5 6 6 3 2 2 4 4 6 5 4 1 4 5 5 1
19 19 7 18 18 15 15 13 12 12 11 10 8 8 8 7 4 5 4 2 2 7 16 11 6 5 4 4 3 4 4 3 3 3 4 3 2 4 3 3 5 6 4
20 20 17 17 17 16 17 14 13 11 11 10 9 7 7 7 7 5 4 6 5 6 11 12 7 6 6 4 4 3 5 4 4 5 4 4 5 4 3 3 6 4 4
22 20 17 16 16 13 16 16 15 12 11 11 10 8 7 4 6 7 6 4 3 6 9 9 2 3 2 2 3 3 5 3 3 5 5 4 6 4 3 2 2 7 6
18 17 17 14 14 15 13 14 16 14 12 13 8 8 7 7 5 3 5 4 6 7 6 6 9 7 6 4 4 2 4 4 4 4 4 4 5 4 5 2 3 3 5
19 15 15 16 13 14 12 12 15 13 13 13 10 9 9 8 7 4 3 9 10 10 10 9 8 8 6 6 6 4 5 5 4 3 4 4 4 6 5 5 2 1 0
17 15 15 16 15 14 13 10 12 12 11 10 12 11 11 11 4 9 10 8 8 9 9 9 7 7 8 6 5 5 7 6 6 7 8 7 6 5 6 6 7 5 3
16 15 14 14 13 14 14 12 11 12 11 8 6 6 15 14 11 9 9 9 8 8 7 7 8 8 8 8 9 10 9 10 11 11 11 11 8 9 8 6 8 6 5
15 15 14 11 10 10 11 12 11 10 12 8 9 12 12 12 12 10 9 9 8 9 8 8 8 9 9 8 8 8 8 10 11 10 10 11 11 10 8 8 8 7 6
13 14 14 11 10 10 8 6 10 11 10 15 14 12 12 12 11 8 9 8 8 7 8 8 9 9 7 9 10 10 9 8 8 10 11 8 9 8 8 8 8 7 7
15 14 15 12 12 10 10 10 11 13 12 12 13 12 12 11 9 9 10 9 7 7 9 10 9 9 9 9 8 11 11 10 9 7 9 8 8 10 10 7 9 10 8
14 17 16 13 12 11 11 11 12 12 12 12 11 11 10 10 10 10 10 9 8 9 9 9 9 9 9 18 17 9 6 7 10 9 9 8 13 8 5 5 11 11 8
18 17 16 14 13 12 12 13 12 12 12 11 11 11 9 9 10 9 10 9 7 9 9 10 9 9 9 15 14 11 9 9 10 9 8 9 9 12 10 4 5 10 11
19 17 14 14 14 14 14 14 13 11 11 11 11 10 10 10 9 9 9 8 7 8 8 8 8 7 7 12 13 12 9 10 10 10 10 9 8 8 9 7 7 5 6
18 16 16 16 14 15 15 14 13 12 12 11 11 11 10 10 9 9 8 7 7 7 9 8 8 8 8 13 13 9 9 9 10 8 8 8 8 12 14 9 9 8 6
18 17 18 18 17 16 15 14 13 12 12 11 11 10 10 9 9 8 7 6 8 9 7 8 8 9 7 12 14 12 4 5 7 6 5 7 6 10 11 5 6 6 5
20 19 18 15 16 16 15 14 14 13 12 12 11 11 10 10 9 8 6 8 8 7 8 8 6 6 6 7 12 14 7 7 6 5 2 2 5 9 10 9 5 5 7
22 21 17 16 16 16 15 15 14 14 13 12 12 11 10 8 7 8 6 7 7 7 8 8 7 4 3 6 8 9 9 7 4 3 0 1 4 8 11 10 9 11 9
21 19 18 18 15 16 15 17 16 15 14 13 12 11 10 9 8 8 7 6 7 7 6 6 7 6 4 3 1 5 6 4 4 4 6 10 10 9 7 14 12 8 4
21 20 20 18 18 16 16 16 17 16 15 14 12 10 10 9 7 6 6 3 2 4 3 4 5 4 5 4 2 2 5 5 3 8 8 7 7 7 5 5 5 5 6
19 20 20 18 19 18 17 18 17 17 15 13 12 11 9 8 6 6 5 7 5 4 4 5 4 7 6 2 1 2 3 4 6 9 7 3 4 4 4 5 6 5 6
20 19 20 19 20 19 19 19 19 17 16 14 11 10 9 8 7 6 7 14 9 7 11 8 8 5 9 6 2 5 7 6 5 4 5 4 4 5 6 6 5 5 5
Wind_Direction
132 357 147 141 148 143 151 112 43 136 145 149 120 113 158 170 203 228 242 248 247 241 242 261 251 101 318 291 302 268 273 281 254 267 288 296 277 279 58 356 283 184 150
132 189 149 144 138 149 153 143 171 139 113 116 136 152 169 208 207 215 228 226 237 257 247 241 280 297 286 255 265 280 267 274 245 265 286 304 331 15 214 222 232 227 173
172 161 138 153 150 148 162 154 158 148 163 167 160 170 180 158 200 225 238 242 228 226 227 226 225 271 282 279 199 235 258 305 311 311 249 306 4 357 329 324 278 165 234
158 153 159 152 153 154 166 155 145 156 179 178 192 170 181 180 213 231 250 221 215 217 232 229 214 226 244 285 269 256 259 226 287 313 338 339 244 224 308 320 332 320 263
157 157 168 148 141 154 159 157 157 163 186 189 202 174 193 199 218 228 239 237 172 224 275 236 222 210 218 239 250 283 298 314 283 299 322 325 337 314 286 315 321 328 268
157 116 256 147 146 154 154 164 171 172 177 188 202 181 191 208 219 225 231 227 239 158 223 260 210 206 247 261 246 269 275 291 260 249 277 265 293 306 332 335 312 293 282
145 149 161 163 147 160 155 156 168 175 176 190 192 199 202 202 202 217 242 196 221 213 208 216 196 201 192 239 269 295 287 272 260 281 270 287 277 271 305 259 279 275 292
149 160 158 147 148 161 159 160 165 176 183 186 189 196 208 207 229 216 240 249 190 215 170 221 99 71 301 355 301 272 285 277 264 259 275 285 284 303 282 269 49 339 320
138 138 141 144 152 163 167 161 162 173 182 182 189 190 199 239 264 208 224 267 19 341 57 313 26 24 17 7 342 305 310 306 315 343 336 240 293 320 310 318 137 150 289
133 146 152 151 158 162 165 162 163 174 184 187 183 191 203 209 239 236 265 19 40 36 30 30 32 27 27 26 6 4 19 353 329 319 335 339 334 343 330 321 17 164 339
137 150 148 151 165 159 159 163 162 170 185 213 177 190 199 194 202 63 60 66 53 41 35 32 35 37 36 27 14 5 26 1 357 3 27 12 2 351 337 343 338 332 359
146 156 140 146 148 153 150 162 171 170 199 172 97 101 68 70 72 63 70 65 67 64 62 57 45 41 32 26 24 46 45 32 35 30 43 32 16 17 6 350 343 333 327
145 133 142 128 144 141 151 152 178 144 107 105 85 88 83 82 80 78 67 59 54 48 37 45 46 42 28 37 44 43 37 49 49 52 42 36 21 13 359 345 355 351 329
130 143 131 144 113 101 97 116 101 98 101 86 89 85 85 81 79 74 81 76 60 71 74 66 62 58 44 37 54 48 51 52 57 73 60 51 41 25 7 22 2 348 350
164 139 127 110 108 105 97 95 93 93 90 93 90 86 82 87 93 94 93 91 91 81 74 70 59 68 63 38 34 66 54 41 40 48 78 70 56 50 39 43 30 20 31
154 125 124 132 130 123 117 106 94 95 99 99 97 89 92 111 110 105 100 93 74 82 72 69 65 62 48 16 20 48 85 73 51 37 29 54 29 17 94 65 64 50 19
135 132 142 145 138 133 123 107 109 105 104 108 111 114 130 120 108 111 107 97 94 77 74 72 66 53 30 14 10 25 68 60 46 37 39 36 32 10 354 23 61 60 30
134 138 145 139 142 139 128 120 116 120 120 120 127 128 122 117 116 109 105 105 101 96 92 82 69 65 46 10 356 339 112 83 64 48 27 40 25 6 352 355 16 64 65
137 143 143 144 140 124 121 123 128 129 128 133 133 129 127 128 126 119 113 108 100 92 74 59 60 58 35 5 6 12 101 101 95 77 54 25 17 354 1 17 14 12 30
142 148 146 141 133 129 132 132 135 134 131 133 128 128 122 119 113 106 101 100 82 81 81 64 61 60 37 15 18 25 55 118 114 110 84 38 9 348 353 12 3 352 332
147 144 140 144 138 139 140 139 139 136 135 131 126 123 123 119 120 117 97 85 93 101 100 94 82 58 31 25 29 26 33 46 63 59 62 70 334 328 334 332 356 307 305
146 142 142 137 143 146 144 143 139 135 136 133 129 127 134 133 121 116 117 125 131 139 142 144 116 93 69 34 33 30 35 22 78 122 181 191 231 293 304 314 333 335 344
146 146 139 143 150 149 152 141 141 143 140 138 138 149 126 123 137 146 159 167 185 167 178 174 140 154 156 131 23 330 329 356 24 5 328 305 298 258 275 261 285 318 10
154 144 148 155 153 157 148 145 147 146 144 145 144 138 139 145 157 175 199 184 128 119 121 127 116 96 69 81 33 27 13 26 338 356 309 268 265 289 291 5 17 19 12
155 153 158 160 159 157 151 151 151 151 148 147 150 155 147 169 147 61 33 94 53 8 56 32 77 120 107 106 77 43 351 348 351 325 323 17 13 20 23 16 13 12 22
153 157 162 160 159 159 159 155 157 158 151 156 162 162 160 163 140 118 87 56 86 74 71 56 82 60 109 153 239 301 300 298 360 313 307 26 18 25 26 16 4 15 14